[[{"header":{"parameterUnit":"m.s-1","parameterCategory":1,"la1":30.2991,"la2":30.254,"lo1":-89.0895,"lo2":-89.0444,"dy":0.0017,"dx":0.0017,"nx":28,"ny":28,"refTime":"2024-06-20T21:00:00:Z","depth":0,"parameterNumber":2,"parameterNumberName":"U-component_of_WINDS"},"data":[0,0,0,0,0,0,0,0,0,0,0,0,0,0,0,0,0,0,0,0,0,0,0,0,0,0,0,0,0,0,0,0,0,0,0,0,0,0,0,0,0,0,0,0,0,0,0,0,0,0,0,0,0,0,0,0,0,0,-5.7956,-5.7955,0,-5.789,-5.789,-5.7889,-5.7725,-5.7721,-5.7718,-5.7714,-5.7651,-5.7653,-5.7654,0,0,0,0,0,0,0,0,0,0,0,0,0,-5.7945,-5.7946,-5.7956,-5.7955,-5.7955,-5.7891,-5.789,-5.7889,-5.7725,-5.7721,-5.7717,-5.7713,-5.7651,-5.7653,-5.7654,0,0,0,0,0,0,0,0,0,0,0,0,0,-5.7922,-5.7947,-5.7956,-5.7865,-5.7856,-5.7891,-5.789,-5.7889,-5.7726,-5.7721,-5.7716,-5.7711,-5.765,-5.7652,-5.7655,-5.7774,0,0,-5.7662,-5.7663,0,0,0,0,0,0,0,0,-5.7924,-5.7923,-5.7879,-5.7871,-5.7862,-5.781,-5.7862,-5.785,-5.7727,-5.7776,-5.7714,-5.7708,-5.7709,-5.7706,-5.7705,-5.7771,-5.7768,-5.7662,-5.7664,-5.7665,-5.7665,0,0,0,0,0,0,0,-5.7926,-5.7925,-5.793,-5.7879,-5.7868,-5.7829,-5.782,-5.7859,-5.7772,-5.7771,-5.7759,-5.7753,-5.7703,-5.7703,-5.7702,-5.7767,-5.7662,-5.7664,-5.7666,-5.7667,-5.793,-5.7935,0,0,0,0,0,0,-5.794,-5.7927,-5.7932,-5.7928,-5.788,-5.7834,-5.7823,-5.7832,-5.7771,-5.7757,-5.7758,-5.7746,-5.7702,-5.77,-5.77,-5.7836,-5.7665,-5.7667,-5.7668,-5.7924,-5.7931,-5.7937,0,0,0,0,0,0,-5.794,-5.7942,-5.7935,-5.7924,-5.792,-5.7839,-5.785,-5.7834,-5.7834,-5.7761,-5.7745,-5.7774,-5.7698,-5.7696,-5.7757,-5.7832,-5.7668,-5.767,-5.7918,-5.7926,-5.7934,-5.811,0,0,0,0,0,0,-5.794,-5.7943,-5.7986,-5.7927,-5.7922,-5.7992,-5.7855,-5.7836,-5.7838,-5.7821,-5.7772,-5.7759,-5.7693,-5.7754,-5.7759,-5.7832,-5.7672,-5.7911,-5.7922,-5.7931,-5.8098,-5.8124,-5.8146,0,0,0,0,0,-5.7941,-5.8038,-5.7989,-5.799,-5.7973,-5.7997,-5.7994,-5.7915,-5.7844,-5.7888,-5.7842,-5.7761,-5.7823,-5.7762,-5.7766,-5.7841,-5.7906,-5.7919,-5.7931,-5.8087,-5.8119,-5.8146,0,0,0,0,0,0,-5.8109,-5.8029,-5.7973,-5.8054,-5.8034,-5.7969,-5.8021,-5.7951,-5.7951,-5.7936,-5.784,-5.783,-5.7905,-5.7878,-5.7812,-5.7954,-5.7851,-5.7865,-5.7968,-5.7998,-5.8022,-5.8027,-5.7674,0,0,0,0,0,-5.8156,-5.818,-5.8109,-5.8187,-5.818,-5.8103,-5.811,-5.8051,-5.8027,-5.8017,-5.7975,-5.7956,-5.7971,-5.7983,-5.7993,-5.8093,-5.8081,-5.8147,-5.8171,-5.8192,-5.8205,-5.8258,-5.8287,-5.7978,-5.7978,-5.7978,0,0,-5.8252,-5.8211,-5.8232,-5.822,-5.8197,-5.8226,-5.8097,-5.8132,-5.8153,-5.8023,-5.8077,-5.8047,-5.8019,-5.81,-5.8134,-5.8081,-5.8288,-5.8208,-5.8224,-5.8227,-5.8274,-5.8304,-5.833,-5.7987,-5.7985,-5.7984,0,0,-5.8443,-5.8414,-5.8477,-5.8457,-5.8424,-5.8372,-5.8388,-5.8334,-5.8309,-5.8361,-5.8265,-5.829,-5.8317,-5.8302,-5.8298,-5.8486,-5.8412,-5.8492,-5.862,-5.8673,-5.8697,-5.8718,-5.8787,-5.8813,-5.8506,-5.8506,-5.8506,0,-5.8567,-5.8605,-5.8518,-5.8561,-5.8559,-5.8442,-5.8507,-5.8492,-5.8465,-5.8468,-5.8408,-5.8441,-5.8414,-5.8491,-5.8538,-5.8538,-5.8554,-5.8497,-5.87,-5.8721,-5.8739,-5.8804,-5.883,-5.8516,-5.8515,-5.8514,-5.8513,0,-5.8761,-5.879,-5.8845,-5.8821,-5.8825,-5.8879,-5.8802,-5.8818,-5.876,-5.8716,-5.8773,-5.8736,-5.8738,-5.8751,-5.8695,-5.8822,-5.879,-5.8717,-5.8612,-5.878,-5.8839,-5.8863,-5.8531,-5.8527,-5.8524,-5.8521,0,0,-5.9055,-5.8983,-5.9005,-5.8994,-5.895,-5.8971,-5.902,-5.9021,-5.9037,-5.9023,-5.9063,-5.9091,-5.9023,-5.9019,-5.896,-5.9007,-5.9161,-5.8928,-5.8926,-5.8974,-5.9301,-5.9357,-5.9387,-5.9111,-5.9116,-5.9119,-5.9304,0,-5.9235,-5.9314,-5.9238,-5.9333,-5.9359,-5.925,-5.9293,-5.9272,-5.9233,-5.9251,-5.9208,-5.923,-5.9138,-5.9135,-5.9177,-5.9133,-5.9225,-5.9119,-5.915,-5.9152,-5.9161,-5.9417,-5.9476,-5.9651,-5.9326,-5.933,-5.9333,0,-5.9455,-5.9451,-5.9549,-5.95,-5.9509,-5.9549,-5.9544,-5.9563,-5.9538,-5.9506,-5.9503,-5.9431,-5.9479,-5.9376,-5.9442,-5.9371,-5.938,-5.9361,-5.9366,-5.9366,-5.9253,-5.9426,-5.9705,-5.9732,-5.9368,-5.9365,-5.9362,0,-5.9662,-5.9681,-5.9742,-5.9735,-5.968,-5.9711,-5.969,-5.966,-5.9666,-5.9663,-5.9666,-5.967,-5.9672,-5.9677,-5.9609,-5.954,-5.9684,-5.9575,-5.9661,-5.9663,-5.9696,-5.9695,-5.9982,-5.9701,-5.9701,-5.97,-5.97,0,-5.9872,-5.9936,-5.9834,-5.9872,-5.9941,-5.9855,-5.9927,-5.9894,-5.9869,-5.99,-5.9806,-5.9838,-5.9746,-5.9769,-5.9717,-5.978,-5.9782,-5.9759,-5.9744,-5.9768,-5.9771,-5.9772,-5.9759,-5.9707,-5.9706,-5.9704,-5.9703,0,-6.0114,-6.0047,-6.0107,-6.0051,-6.0038,-6.0092,-6.0044,-6.0078,-6.0033,-6.0074,-6.0079,-6.001,-6.0032,-5.9965,-5.9976,-5.9941,-6.0034,-5.9999,-6.0042,-6.0032,-6.0122,-6.0115,-6.0421,-6.0457,-6.0153,-6.0156,-6.0158,0,-6.0252,-6.0299,-6.0248,-6.0261,-6.0245,-6.0268,-6.0274,-6.0192,-6.0202,-6.0179,-6.0217,-6.0231,-6.0237,-6.0279,-6.023,-6.024,-6.0205,-6.0311,-6.0206,-6.0229,-6.0208,-6.0207,-6.0212,-6.0334,-6.0337,-6.034,-6.0343,0,-6.0505,-6.0471,-6.0482,-6.0483,-6.0492,-6.0489,-6.048,-6.0497,-6.0409,-6.0426,-6.0447,-6.0453,-6.0465,-6.0481,-6.048,-6.046,-6.0389,-6.0377,-6.0397,-6.0422,-6.0446,-6.0435,-6.0103,-6.037,-6.0367,-6.0365,-6.0364,-6.0363,-6.07,-6.0737,-6.0708,-6.0724,-6.0709,-6.0703,-6.0732,-6.0691,-6.0707,-6.071,-6.0661,-6.0693,-6.067,-6.0661,-6.0649,-6.0674,-6.0625,-6.0654,-6.0662,-6.0671,-6.0687,-6.0441,-6.0673,-6.0673,-6.0672,-6.0671,-6.067,0,-6.0949,-6.0925,-6.0941,-6.0931,-6.0945,-6.0875,-6.0862,-6.0879,-6.0908,-6.0891,-6.09,-6.0926,-6.0942,-6.0896,-6.0905,-6.0935,-6.0902,-6.094,-6.0938,-6.0935,-6.0729,-6.0711,-6.0967,-6.0967,-6.0967,-6.0966,-6.0966,-6.0966,-6.1081,-6.1141,-6.1104,-6.1156,-6.1132,-6.1162,-6.116,-6.1156,-6.1142,-6.1175,-6.1187,-6.1157,-6.1129,-6.1137,-6.1149,-6.1135,-6.1144,-6.1194,-6.1169,-6.0978,-6.0949,-6.0921,-6.0904,-6.1196,-6.1196,-6.1372,-6.1374,-6.1375]},{"header":{"parameterUnit":"m.s-1","parameterCategory":1,"la1":30.2991,"la2":30.254,"lo1":-89.0895,"lo2":-89.0444,"dy":0.0017,"dx":0.0017,"nx":28,"ny":28,"refTime":"2024-06-20T21:00:00:Z","depth":0,"parameterNumber":3,"parameterNumberName":"V-component_of_WINDS"},"data":[0,0,0,0,0,0,0,0,0,0,0,0,0,0,0,0,0,0,0,0,0,0,0,0,0,0,0,0,0,0,0,0,0,0,0,0,0,0,0,0,0,0,0,0,0,0,0,0,0,0,0,0,0,0,0,0,0,0,0.5987,0.5987,0,0.602,0.602,0.602,0.6067,0.6068,0.6068,0.6069,0.6101,0.6101,0.6101,0,0,0,0,0,0,0,0,0,0,0,0,0,0.5962,0.5963,0.5987,0.5987,0.5987,0.602,0.602,0.602,0.6067,0.6068,0.6069,0.607,0.6101,0.6101,0.6101,0,0,0,0,0,0,0,0,0,0,0,0,0,0.5982,0.5963,0.5987,0.6014,0.6017,0.6019,0.602,0.6021,0.6066,0.6068,0.6069,0.607,0.6101,0.6101,0.6101,0.6078,0,0,0.6101,0.6101,0,0,0,0,0,0,0,0,0.5981,0.5983,0.601,0.6013,0.6016,0.604,0.6023,0.604,0.6066,0.6048,0.6069,0.6071,0.6079,0.6081,0.6085,0.6079,0.6081,0.6101,0.6101,0.6101,0.6102,0,0,0,0,0,0,0,0.5979,0.5981,0.6,0.601,0.6014,0.6025,0.6029,0.6026,0.6056,0.6049,0.6053,0.6056,0.6081,0.6085,0.6086,0.6081,0.6101,0.6101,0.6102,0.6102,0.6057,0.6056,0,0,0,0,0,0,0.5974,0.598,0.5999,0.6001,0.6001,0.6024,0.6029,0.6031,0.6057,0.6062,0.6055,0.6058,0.6084,0.6086,0.6087,0.6061,0.6101,0.6102,0.6102,0.6059,0.6057,0.6056,0,0,0,0,0,0,0.5973,0.5975,0.5997,0.5991,0.5995,0.6023,0.6026,0.6031,0.6035,0.6061,0.6066,0.6053,0.6085,0.6087,0.608,0.6063,0.6102,0.6102,0.606,0.6058,0.6056,0.6008,0,0,0,0,0,0,0.5972,0.5975,0.5966,0.5991,0.5995,0.5989,0.6025,0.6031,0.6035,0.6039,0.606,0.6065,0.6086,0.6079,0.608,0.6063,0.6102,0.6062,0.6059,0.6057,0.6011,0.6005,0.5999,0,0,0,0,0,0.5971,0.5951,0.5966,0.5968,0.5985,0.5988,0.5991,0.6016,0.6033,0.6025,0.6042,0.6064,0.6065,0.6078,0.6079,0.6062,0.6063,0.606,0.6057,0.6014,0.6006,0.5999,0,0,0,0,0,0,0.5923,0.5955,0.5971,0.5958,0.597,0.5996,0.5986,0.6007,0.6013,0.6017,0.6047,0.6052,0.604,0.6051,0.6065,0.6041,0.6067,0.6065,0.6034,0.6027,0.6021,0.6017,0.6102,0,0,0,0,0,0.5911,0.5911,0.5939,0.5925,0.593,0.5957,0.5959,0.5978,0.5991,0.5996,0.6013,0.6024,0.6027,0.6028,0.6032,0.6014,0.6019,0.6003,0.5997,0.5992,0.5988,0.5979,0.5972,0.6046,0.6046,0.6047,0,0,0.5885,0.5903,0.5901,0.5916,0.5927,0.5926,0.5961,0.5958,0.5957,0.5996,0.5989,0.6002,0.6017,0.6004,0.5999,0.6013,0.5969,0.5989,0.5984,0.5983,0.5975,0.5968,0.5962,0.6045,0.6045,0.6045,0,0,0.5838,0.5852,0.5842,0.5853,0.587,0.5888,0.5886,0.5909,0.5919,0.5914,0.5942,0.5942,0.5946,0.5955,0.596,0.5918,0.5938,0.5919,0.5886,0.5876,0.587,0.5865,0.5848,0.5842,0.5916,0.5916,0.5916,0,0.5804,0.5804,0.5833,0.5829,0.5834,0.587,0.5859,0.5868,0.5886,0.5888,0.5904,0.591,0.5923,0.5912,0.5901,0.5905,0.5902,0.5915,0.5869,0.5864,0.586,0.5844,0.5838,0.5913,0.5913,0.5914,0.5914,0,0.5761,0.576,0.575,0.5766,0.577,0.5763,0.579,0.5791,0.581,0.5826,0.582,0.5837,0.5845,0.5844,0.5862,0.5836,0.5843,0.5864,0.589,0.5849,0.5835,0.5829,0.5909,0.591,0.5911,0.5912,0,0,0.5681,0.5715,0.5711,0.5718,0.5741,0.5741,0.5735,0.5743,0.5743,0.5754,0.5749,0.5752,0.5771,0.5777,0.5797,0.5789,0.5752,0.581,0.5811,0.5797,0.5722,0.5705,0.5698,0.5767,0.5766,0.5765,0.572,0,0.5637,0.5628,0.5655,0.564,0.5639,0.5674,0.5669,0.5682,0.5697,0.5699,0.5716,0.5717,0.5744,0.5747,0.5741,0.5758,0.5737,0.5762,0.5761,0.576,0.5753,0.5691,0.5672,0.5629,0.5715,0.5714,0.5714,0,0.5583,0.5592,0.5576,0.56,0.5601,0.5595,0.5605,0.5607,0.5622,0.5634,0.5641,0.5664,0.5659,0.5687,0.568,0.5696,0.5697,0.5706,0.5705,0.5703,0.5732,0.5685,0.5616,0.5608,0.5706,0.5706,0.5707,0,0.5524,0.5533,0.5524,0.553,0.5558,0.5553,0.5564,0.5581,0.5584,0.5593,0.5595,0.5603,0.5607,0.5612,0.5637,0.5655,0.5626,0.5656,0.5635,0.5634,0.5625,0.5624,0.5552,0.563,0.563,0.563,0.563,0,0.547,0.5458,0.5498,0.5492,0.5481,0.5512,0.55,0.5514,0.5529,0.5526,0.5558,0.5555,0.5589,0.5589,0.5609,0.5599,0.5601,0.5609,0.5614,0.5605,0.5604,0.5604,0.5607,0.5628,0.5629,0.5629,0.5629,0,0.54,0.5427,0.542,0.5447,0.5454,0.5444,0.5467,0.5462,0.5481,0.5478,0.5479,0.5507,0.5509,0.5535,0.5543,0.5556,0.5538,0.555,0.5532,0.5535,0.5512,0.5512,0.5435,0.5426,0.5512,0.5511,0.551,0,0.5363,0.5355,0.5382,0.5383,0.5392,0.5394,0.5398,0.5429,0.5431,0.5449,0.5442,0.5447,0.5452,0.5454,0.5475,0.5481,0.5492,0.5465,0.5493,0.5484,0.5489,0.5488,0.5486,0.5457,0.5456,0.5455,0.5455,0,0.5292,0.5306,0.5311,0.532,0.5324,0.5332,0.5343,0.5342,0.5376,0.5378,0.5381,0.5385,0.5393,0.5397,0.5407,0.5418,0.5441,0.5446,0.5441,0.543,0.542,0.5423,0.5513,0.5447,0.5448,0.5448,0.5449,0.5449,0.5236,0.523,0.5248,0.5252,0.5264,0.5273,0.527,0.5289,0.5293,0.5302,0.5321,0.5321,0.5337,0.5353,0.5362,0.5362,0.5376,0.5369,0.5367,0.5364,0.5358,0.5422,0.5364,0.5364,0.5364,0.5365,0.5365,0,0.5165,0.5179,0.5183,0.5197,0.52,0.5224,0.5237,0.5237,0.5237,0.5251,0.5256,0.5259,0.5263,0.5285,0.5292,0.5287,0.5298,0.5288,0.5287,0.5289,0.5346,0.5349,0.5279,0.5279,0.5279,0.5279,0.5279,0.5279,0.5128,0.512,0.5136,0.5133,0.5147,0.5148,0.5153,0.5161,0.5172,0.5175,0.5179,0.5194,0.521,0.5218,0.5223,0.523,0.5229,0.5215,0.5224,0.5277,0.5285,0.5293,0.5295,0.5215,0.5215,0.5167,0.5166,0.5166]}]]